Find OneWeb SL0403

NORAD ID: 50483 Int'l Des: 2021-132 Owner: ONEWEBN Country: UK Constellation: oneweb operational
LEOCIRCULARPOLARONEWEB_TYPE

現在のビュー

3D地球を読み込み中...

About OneWeb SL0403

OneWeb SL0403 (NORAD 50483) is a oneweb constellation satellite launched Dec 27, 2021 by ONEWEBN of UK. It operates in LEO, CIRCULAR, POLAR, ONEWEB_TYPE orbit with a mass of 148.00 kg.

OneWeb SL0403について

説明を読み込み中...

次回通過

Passes for default location (London). Set your location on the main map for personalized predictions.

高度履歴

Loading altitude history...

軌道要素

1 50483U 21132Q 26171.45691113 .00000038 00000-0 63131-4 0 9995
2 50483 87.9173 334.8044 0001965 90.5541 269.5816 13.18685400222029
Epoch: Jun 20, 2026 • Age: 17 hours

現在のステータス

高度 1191.7 km
速度 7.26 km/s
衛星直下点 9.32°N, 178.32°W
打ち上げ日 Dec 27, 2021
運用期間 4.4 years
タイプ internet

技術仕様

分類 Payload
質量 148.00 kg
乾燥質量 140.00 kg
総質量 148.00 kg
長さ 1.30 m
直径 1.00 m
スパン 5.00 m
形状 Trapezoid+2 pan
製造者 ONEWUS
バスタイプ ARROW
フェーズステータス In Orbit
所有者/国 ONEWEBN/UK

Most Searched